Regional Weather Roundup
Issued by NWS Bismarck, ND

Home | Current Version | Previous Version | Text Only | Print | Product List | Glossary On
Versions: 1 2 3 4 5 6 7 8 9 10 11 12 13 14 15 16 17 18 19 20 21 22 23 24 25 26 27 28 29 30 31 32 33 34 35 36 37 38 39 40 41 42 43 44 45 46 47 48 49 50
000
ASUS43 KBIS 090802
RWRBIS

NWR BROADCAST TEXT
NATIONAL WEATHER SERVICE BISMARCK ND
200 AM CST FRI DEC 09 2016

NOTE: "FAIR" INDICATES FEW OR NO CLOUDS BELOW 12,000 FEET WITH NO
SIGNIFICANT WEATHER AND/OR OBSTRUCTIONS TO VISIBILITY.


CITY           SKY/WX    TMP DP  RH WIND       PRES   REMARKS
WILLISTON      CLOUDY   -16 -20  82 CALM      30.56F
MINOT          CLOUDY    -6 -11  79 W12       30.55S WCI -25
MINOT AFB      CLOUDY   -10 -15  78 W10       30.55S WCI -29
BISMARCK       CLOUDY    -7 -11  83 CALM      30.58F
DICKINSON      CLOUDY   -11 -16  78 NW3       30.44F
GARRISON         N/A    -13 -17  82 N9        30.54S WCI -31
HETTINGER ARPT CLOUDY   -23 -28  78 W5        30.45F WCI -37
JAMESTOWN      CLEAR     -7 -11  83 W7        30.55S WCI -21
CARRINGTON     FAIR      -4  -9  77 W9        30.56F WCI -20
HAZEN          FLURRIES  -2  -9  71 SW5       30.58F WCI -12
STANLEY        FAIR     -15 -18  84 NW9       30.52S WCI -33
TIOGA          PTSUNNY  -15 -18  84 W7        30.52F WCI -31
WATFORD CITY   FAIR     -20 -26  76 CALM      30.54F
$$

CITY           SKY/WX    TMP DP  RH WIND       PRES   REMARKS
GRAND FORKS    FLURRIES   8   1  73 NW9       30.58S WCI  -5
GRAND FORKS AF CLOUDY     7   0  72 NW7       30.58S WCI  -5
DEVILS LAKE    FLURRIES  -1  -5  82 NW12      30.55S WCI -18
FARGO          CLOUDY     8   2  76 MISG      30.59S
GRAFTON          N/A      9   1  72 W12       30.60S WCI  -6
GWINNER        FAIR       0  -6  78 W6        30.59S WCI -12
LANGDON        CLOUDY     0  -6  78 NW10      30.51S WCI -17
$$

CITY           SKY/WX    TMP DP  RH WIND       PRES   REMARKS
ABERDEEN       CLEAR     -7 -12  79 W3        30.62S
MOBRIDGE       CLOUDY    -6 -12  75 NW3       30.53F
BUFFALO          N/A     -9 -14  78 NE3       30.30F
RAPID CITY     CLOUDY     2  -4  76 SE6       30.34F WCI  -9
GLASGOW        CLEAR     -6 -11  79 E9        30.48F WCI -23
SIDNEY         CLOUDY   -15 -20  78 N3        30.56F
WOLF POINT     CLOUDY   -12 -18  74 NE6       30.55F WCI -26
GLENDIVE       CLOUDY   -13 -18  78 N6        30.48F WCI -27
MILES CITY     CLOUDY    -5 -10  79 NE10      30.41F WCI -23
BAKER          CLOUDY   -12 -18  74 E6        30.40F WCI -26
$$

CITY           SKY/WX    TMP DP  RH WIND       PRES   REMARKS
BILLINGS       CLOUDY     2  -3  80 NE10      30.24F WCI -14
GREAT FALLS    CLOUDY    -3  -7  82 NE5       30.29F WCI -13
$$





USA.gov is the U.S. government's official web portal to all federal, state and local government web resources and services.